TimeEST,TemperatureF,Dew PointF,Humidity,Sea Level PressureIn,VisibilityMPH,Wind Direction,Wind SpeedMPH,Gust SpeedMPH,PrecipitationIn,Events,Conditions,WindDirDegrees,DateUTC
12:53 AM,28.0,25.0,88,30.09,5.0,Calm,Calm,-,N/A,,Clear,0,2013-12-20 05:53:00
1:53 AM,28.9,25.0,85,30.09,5.0,Calm,Calm,-,N/A,,Clear,0,2013-12-20 06:53:00
2:53 AM,28.9,25.0,85,30.08,6.0,Calm,Calm,-,N/A,,Clear,0,2013-12-20 07:53:00
3:53 AM,28.0,25.0,88,30.07,5.0,Calm,Calm,-,N/A,,Clear,0,2013-12-20 08:53:00
4:53 AM,28.9,26.1,89,30.06,5.0,Calm,Calm,-,N/A,,Partly Cloudy,0,2013-12-20 09:53:00
5:53 AM,28.0,25.0,88,30.05,4.0,Calm,Calm,-,N/A,,Clear,0,2013-12-20 10:53:00
6:53 AM,28.9,26.1,89,30.05,4.0,Calm,Calm,-,N/A,,Partly Cloudy,0,2013-12-20 11:53:00
7:53 AM,30.0,26.1,85,30.05,3.0,Calm,Calm,-,N/A,,Overcast,0,2013-12-20 12:53:00
8:53 AM,30.9,28.0,89,30.04,4.0,Calm,Calm,-,N/A,,Partly Cloudy,0,2013-12-20 13:53:00
9:53 AM,33.1,28.0,82,30.04,4.0,Calm,Calm,-,N/A,,Haze,0,2013-12-20 14:53:00
10:53 AM,35.1,30.0,82,30.04,4.0,Calm,Calm,-,N/A,,Haze,0,2013-12-20 15:53:00
11:53 AM,37.9,30.9,76,30.01,5.0,South,5.8,-,N/A,,Haze,190,2013-12-20 16:53:00
12:53 PM,42.1,30.0,62,29.99,8.0,SSW,3.5,-,N/A,,Overcast,200,2013-12-20 17:53:00
1:53 PM,42.1,30.0,62,29.96,9.0,South,3.5,-,N/A,,Overcast,190,2013-12-20 18:53:00
2:53 PM,45.0,28.9,53,29.95,10.0,WSW,3.5,-,N/A,,Overcast,240,2013-12-20 19:53:00
3:53 PM,46.9,28.9,50,29.96,10.0,SW,6.9,-,0.00,,Overcast,220,2013-12-20 20:53:00
4:53 PM,46.9,28.9,50,29.96,10.0,SW,4.6,-,N/A,,Mostly Cloudy,230,2013-12-20 21:53:00
5:53 PM,46.0,28.9,51,29.97,10.0,SSW,8.1,-,N/A,,Mostly Cloudy,210,2013-12-20 22:53:00
6:53 PM,45.0,28.9,53,29.98,10.0,SSW,5.8,-,N/A,,Mostly Cloudy,210,2013-12-20 23:53:00
7:53 PM,43.0,28.9,58,29.97,10.0,SSW,5.8,-,N/A,,Mostly Cloudy,210,2013-12-21 00:53:00
8:53 PM,44.1,28.9,55,29.98,10.0,WSW,3.5,-,N/A,,Overcast,250,2013-12-21 01:53:00
9:53 PM,43.0,30.0,60,29.98,10.0,SSW,4.6,-,0.00,,Overcast,210,2013-12-21 02:53:00
10:53 PM,42.1,30.9,65,29.96,10.0,South,5.8,-,N/A,,Overcast,180,2013-12-21 03:53:00
11:53 PM,43.0,32.0,65,29.96,7.0,South,8.1,-,N/A,,Overcast,190,2013-12-21 04:53:00